Abu Dhabi, UAE

1:23 PM GST on February 11, 2016 (GMT +0400)
Abu Dhabi International

Weather History for OMAA - September, 2013

Change the Weather History Date:

Sunday, September 15, 2013

  Actual Average Record
Temperature  
Mean Temperature 90 °F -  
Max Temperature 98 °F 98 °F 109 °F (1998)
Min Temperature 82 °F 76 °F 77 °F (2003)
Cooling Degree Days 25    
Growing Degree Days 40 (Base 50)    
Moisture  
Dew Point 77 °F    
Average Humidity 68    
Maximum Humidity 84    
Minimum Humidity 34    
Precipitation  
Precipitation 0.00 in 0.00 in - ()
Sea Level Pressure  
Sea Level Pressure 29.64 in    
Wind  
Wind Speed 5 mph ()    
Max Wind Speed 16 mph    
Max Gust Speed 23 mph    
Visibility 5.2 miles    
Events      
Averages and records for this station are not official NWS values.
T = Trace of Precipitation, MM = Missing Value Source: Averaged Metar Reports

Daily Weather History Graph

Daily Weather History Graph

Search for Another Location

Airport or City:

Trip Planner

Search our weather history database for the weather conditions in past years. The results will help you decide how hot, cold, wet, or windy it might be!

Date:

Astronomy

Sep. 15, 2013 Rise Set
Actual Time 6:07 AM GST 6:25 PM GST
Civil Twilight 5:44 AM GST 6:48 PM GST
Nautical Twilight 5:18 AM GST 7:14 PM GST
Astronomical Twilight 4:51 AM GST 7:41 PM GST
Moon 3:14 PM GST (9/15) 1:42 AM GST (9/15)
Length of Visible Light 13h 03m
Length of Day
12h 17m
Waxing Gibbous, 79% of the Moon is Illuminated
Sep 15
Waxing Gibbous
Sep 19
Full
Sep 27
Last Quarter
Oct 5
New
Oct 12
First Quarter

Hourly Weather History & Observations

Time (GST) Temp. Heat Index Dew Point Humidity Pressure Visibility Wind Dir Wind Speed Gust Speed Precip Events Conditions
12:00 AM 86.0 °F 99.3 °F 78.8 °F 79% 29.71 in 5.6 mi NNE 8.1 mph - N/A   Unknown
1:00 AM 86.0 °F 96.9 °F 77.0 °F 74% 29.65 in 5.6 mi ENE 2.3 mph - N/A   Unknown
2:00 AM 86.0 °F 96.9 °F 77.0 °F 74% 29.65 in 5.6 mi Variable 2.3 mph - N/A   Unknown
3:00 AM 86.0 °F 96.9 °F 77.0 °F 74% 29.62 in - South 3.5 mph - N/A   Clear
4:00 AM 84 °F - 77 °F 75% 29.63 in 6 mi South 4.6 mph - -   Haze
4:00 AM 84.2 °F 94.1 °F 77.0 °F 79% 29.62 in 5.6 mi South 4.6 mph - N/A   Unknown
5:00 AM 82.4 °F 90.9 °F 77.0 °F 84% 29.65 in 5.0 mi NE 3.5 mph - N/A   Unknown
6:00 AM 82.4 °F 90.9 °F 77.0 °F 84% 29.65 in 4.3 mi East 2.3 mph - N/A   Unknown
7:00 AM 83 °F - 77 °F 78% 29.68 in 4 mi East 3.5 mph - -   Haze
7:00 AM 82.4 °F 90.9 °F 77.0 °F 84% 29.68 in 3.7 mi East 3.5 mph - N/A   Unknown
8:00 AM 86.0 °F 99.3 °F 78.8 °F 79% 29.68 in 5.0 mi East 3.5 mph - N/A   Unknown
9:00 AM 87.8 °F 102.5 °F 78.8 °F 75% 29.71 in 5.0 mi East 5.8 mph - N/A   Unknown
10:00 AM 91.4 °F 107.2 °F 78.8 °F 66% 29.71 in - NNE 4.6 mph - N/A   Clear
11:00 AM 95.0 °F 103.2 °F 71.6 °F 47% 29.68 in - ENE 3.5 mph - N/A   Clear
12:00 PM 98.6 °F 111.7 °F 75.2 °F 47% 29.65 in - West 5.8 mph - N/A   Clear
1:00 PM 98 °F - 72 °F 34% 29.64 in 6 mi WNW 8.1 mph - -  
1:00 PM 98.6 °F 107.7 °F 71.6 °F 42% 29.62 in - WNW 8.1 mph - N/A   Clear
2:00 PM 96.8 °F 112.2 °F 77.0 °F 53% 29.62 in - WNW 11.5 mph - N/A   Clear
3:00 PM 95.0 °F 112.2 °F 78.8 °F 59% 29.59 in 5.0 mi NW 15.0 mph - N/A   Unknown
4:00 PM 93.2 °F 107.2 °F 77.0 °F 59% 29.59 in 5.0 mi NW 16.1 mph - N/A   Unknown
5:00 PM 93.2 °F 107.2 °F 77.0 °F 59% 29.59 in 5.0 mi NW 16.1 mph - N/A   Partly Cloudy
6:00 PM 91.4 °F 107.2 °F 78.8 °F 66% 29.59 in 6.2 mi NNW 13.8 mph - N/A   Partly Cloudy
7:00 PM 90 °F - 80 °F 66% 29.60 in 6 mi NNW 11.5 mph - -  
7:00 PM 89.6 °F 108.2 °F 80.6 °F 75% 29.59 in - NNW 11.5 mph 23.0 mph N/A   Clear
8:00 PM 89.6 °F 108.2 °F 80.6 °F 75% 29.62 in - NE 6.9 mph - N/A   Clear
9:00 PM 89.6 °F 104.7 °F 78.8 °F 70% 29.59 in - NNW 6.9 mph - N/A   Clear
10:00 PM 89.6 °F 104.7 °F 78.8 °F 70% 29.62 in - NNW 4.6 mph - N/A   Clear
11:00 PM 87.8 °F 102.5 °F 78.8 °F 75% 29.59 in - North 3.5 mph - N/A   Clear